Content
SEND FEEDBACK

Daily
Averages
Monthly
Summary
United States of America

AGAT, GUAM


Home > North America > United States > Guam
Elevation: 364 feet     Latitude: 13 33N     Longitude: 144 50E

WEATHER
 
SELECT A DAY
Number of Records: 209,044;   Date Range: 1/1/95 - 7/29/14
 
SHARE

PRINT THIS DATA

[ ← Previous Day ]
WEATHER ALMANAC - JANUARY 12, 2013
[ Next Day → ]
[ °C ]   °F
Weather ElementAverageHighLow
Temperature79 °F84 °F (1:54 pm)77 °F (1:54 am)
Dewpoint73.7 °F77 °F (10:54 am)72 °F (9:54 pm)
Humidity84.1 %90 % (4:54 am)69 % (1:54 pm)
Barometer29.90 in29.96 in (8:54 am)29.85 in (1:54 pm)
Wind Speed14.2 mph23 mph (11:54 am)
Wind Gust34.5 mph (2:54 pm)
Weather ElementAverage
Visibility9 mi
Wind DirectionENE (71.8 °)

Weather ElementTotal
Precipitation0.11 in
Cooling Degree Days15.5 (Base 65)
Growing Degree Days30.5 (Base 50)
Averaged from 28 records on January 12, 2013
WEATHER CONDITIONS BREAKOUT
WIND DIRECTION BREAKOUT
WEATHER BY HOUR - JANUARY 12, 2013
[ °C ]   °F
Local TimeTemperatureDewpointHumidityBarometerVisibilityWind DirectionWind SpeedGust SpeedPrecipitationEventsConditions
1:54 AM77.0 °F73.0 °F88 %29.91 in10.0 miEast (80°)9.2 mph0.00 inMostly Cloudy
2:54 AM77.0 °F73.0 °F88 %29.90 in10.0 miEast (90°)8.1 mphScattered Clouds
3:54 AM77.0 °F73.0 °F88 %29.90 in10.0 miENE (60°)10.4 mphPartly Cloudy
4:54 AM77.0 °F73.9 °F90 %29.91 in10.0 miENE (70°)11.5 mph0.01 inMostly Cloudy
5:54 AM77.0 °F73.9 °F90 %29.91 in10.0 miENE (60°)6.9 mphClear
6:54 AM77.0 °F73.0 °F88 %29.93 in10.0 miENE (70°)10.4 mphPartly Cloudy
7:54 AM79.0 °F75.0 °F88 %29.94 in10.0 miEast (80°)6.9 mphScattered Clouds
8:54 AM79.0 °F73.0 °F82 %29.96 in10.0 miENE (70°)10.4 mph0.00 inMostly Cloudy
9:54 AM82.0 °F73.9 °F76 %29.94 in10.0 miENE (60°)17.3 mph25.3 mphMostly Cloudy
10:54 AM81.0 °F77.0 °F88 %29.92 in10.0 miEast (80°)15.0 mph0.00 inMostly Cloudy
11:54 AM82.9 °F73.0 °F72 %29.90 in10.0 miENE (60°)23.0 mph31.1 mphMostly Cloudy
12:54 PM81.0 °F75.9 °F85 %29.88 in5.0 miENE (60°)18.4 mph26.5 mph0.00 inRainLight Rain
1:54 PM84.0 °F73.0 °F69 %29.85 in10.0 miENE (70°)20.7 mph0.00 inScattered Clouds
2:54 PM80.1 °F75.9 °F87 %29.86 in3.0 miEast (80°)23.0 mph34.5 mph0.00 inRainLight Rain
3:07 PM78.8 °F75.2 °F89 %29.87 in9.0 miEast (80°)18.4 mph0.00 inMostly Cloudy
3:54 PM82.0 °F73.0 °F74 %29.86 in10.0 miENE (70°)19.6 mph31.1 mph0.00 inScattered Clouds
4:54 PM81.0 °F73.0 °F77 %29.87 in10.0 miEast (80°)16.1 mph23.0 mphMostly Cloudy
5:54 PM80.1 °F73.0 °F79 %29.87 in10.0 miEast (80°)15.0 mphMostly Cloudy
6:11 PM78.8 °F75.2 °F89 %29.89 in4.0 miENE (70°)13.8 mph0.01 inRainHeavy Rain
6:26 PM77.0 °F73.4 °F89 %29.89 in7.0 miENE (70°)16.1 mph0.03 inOvercast
6:54 PM77.0 °F73.0 °F88 %29.86 in10.0 miENE (70°)17.3 mph24.2 mph0.03 inScattered Clouds
7:54 PM78.1 °F73.9 °F87 %29.86 in10.0 miENE (70°)15.0 mphScattered Clouds
8:54 PM78.1 °F73.0 °F84 %29.87 in10.0 miENE (70°)13.8 mphPartly Cloudy
9:54 PM78.1 °F72.0 °F81 %29.89 in10.0 miENE (70°)11.5 mphMostly Cloudy
10:54 PM79.0 °F73.0 °F82 %29.90 in10.0 miENE (70°)15.0 mph0.00 inMostly Cloudy
11:17 PM77.0 °F73.4 °F89 %29.92 in5.0 miEast (80°)8.1 mph0.01 inRainLight Rain
11:30 PM78.8 °F73.4 °F83 %29.92 in10.0 miENE (70°)15.0 mph0.01 inMostly Cloudy
11:54 PM78.1 °F73.0 °F84 %29.90 in10.0 miENE (70°)11.5 mph0.01 inScattered Clouds
Hourly data recorded from PGUM, located miles away from Agat, Guam







STORIES FROM OUR PARTNERS